{"data":{"norad_id":52561,"intl_designator":"2022-051AE","name":"STARLINK-3955","alt_names":[],"object_type":"PAYLOAD","status":"ACTIVE","operator":null,"country":"US","launch_date":"2022-05-13","launch_site_code":"AFWTR","launch_vehicle":null,"mission":null,"orbit_class":"UNKNOWN","rcs_meters":null,"size_class":null,"mass_kg":null,"dimensions":null,"purposes":["comms"],"wikipedia_slug":null,"has_3d_model":false,"image_url":null,"decayed_at":null,"tle_current":{"epoch":"2026-05-24T09:49:10.336224Z","epoch_age_seconds":126923,"freshness":"FRESH","line1":"1 52561U 22051AE  26144.40914741  .00000322  00000+0  38304-4 0  9994","line2":"2 52561  53.2142 154.2038 0001102  72.3518 287.7595 15.08838548222808","mean_motion":15.08838548,"eccentricity":0.0001102,"inclination_deg":53.2142,"raan_deg":154.2038,"arg_perigee_deg":72.3518,"mean_anomaly_deg":287.7595,"bstar":3.8304e-5,"rev_number":22280,"period_min":95.43764652015,"perigee_km":538.98547624283,"apogee_km":540.51017805873,"semimajor_km":6917.8848271508,"source":"CELESTRAK","updated_at":"2026-05-25T13:38:17.166569Z"}}}